Weather History for Arlington, WA

Change the Weather History Date:

Tuesday, May 28, 2013

  Actual Average Record
Temperature  
Mean Temperature 56 °F -  
Max Temperature 62 °F 60 °F 80 °F (2005)
Min Temperature 51 °F 45 °F 42 °F (2014)
Degree Days  
Heating Degree Days 8    
Growing Degree Days 6 (Base 50)    
Moisture  
Dew Point 48 °F    
Average Humidity 72    
Maximum Humidity 88    
Minimum Humidity 55    
Precipitation  
Precipitation 0.00 in - - ()
Sea Level Pressure  
Sea Level Pressure 29.85 in    
Wind  
Wind Speed 12 mph (SSE)    
Max Wind Speed 18 mph    
Max Gust Speed 24 mph    
Visibility 10 miles    
Events      
Averages and records for this station are not official NWS values.
T = Trace of Precipitation, MM = Missing Value Source: NWS Daily Summary

Daily Weather History Graph

Daily Weather History Graph

Search for Another Location

Airport:

Trip Planner

Search our weather history database for the weather conditions in past years. The results will help you decide how hot, cold, wet, or windy it might be!

Date:

Astronomy

May. 28, 2013 Rise Set
Actual Time 5:15 AM PDT 8:57 PM PDT
Civil Twilight 4:35 AM PDT 9:36 PM PDT
Nautical Twilight 3:42 AM PDT 10:30 PM PDT
Astronomical Twilight 2:26 AM PDT 11:47 PM PDT
Moon No Moon Rise 9:18 AM PDT (5/28)
Length of Visible Light 17h 01m
Length of Day
15h 41m
Waning Gibbous, 82% of the Moon is Illuminated
May 28
Waning Gibbous
May 31
Last Quarter
Jun 8
New
Jun 16
First Quarter
Jun 23
Full

Hourly Weather History & Observations

Time (PDT) Temp. Dew Point Humidity Pressure Visibility Wind Dir Wind Speed Gust Speed Precip Events Conditions
12:15 AM 55.4 °F 50.0 °F 82% 29.79 in 10.0 mi SE 12.7 mph - N/A   Unknown
12:35 AM 55.4 °F 50.0 °F 82% 29.79 in 10.0 mi SE 11.5 mph - N/A   Unknown
12:55 AM 55.4 °F 50.0 °F 82% 29.80 in 10.0 mi SE 11.5 mph 16.1 mph N/A   Unknown
1:15 AM 55.4 °F 50.0 °F 82% 29.80 in 10.0 mi SSE 10.4 mph - N/A   Unknown
1:35 AM 55.4 °F 50.0 °F 82% 29.80 in 10.0 mi SE 10.4 mph - N/A   Unknown
1:55 AM 55.4 °F 50.0 °F 82% 29.81 in 10.0 mi SE 9.2 mph - N/A   Unknown
2:15 AM 55.4 °F 48.2 °F 77% 29.81 in 10.0 mi SSE 16.1 mph 20.7 mph N/A   Unknown
2:35 AM 53.6 °F 48.2 °F 82% 29.82 in 10.0 mi SSE 13.8 mph - N/A   Unknown
2:55 AM 53.6 °F 48.2 °F 82% 29.82 in 10.0 mi SSE 15.0 mph 19.6 mph N/A   Unknown
3:15 AM 53.6 °F 48.2 °F 82% 29.82 in 10.0 mi SSE 12.7 mph - N/A   Unknown
3:35 AM 53.6 °F 48.2 °F 82% 29.83 in 10.0 mi SSE 13.8 mph 21.9 mph N/A   Unknown
3:55 AM 53.6 °F 48.2 °F 82% 29.83 in 10.0 mi SSE 11.5 mph - N/A   Unknown
4:15 AM 53.6 °F 46.4 °F 77% 29.83 in 10.0 mi SSE 12.7 mph - N/A   Unknown
4:35 AM 53.6 °F 46.4 °F 77% 29.84 in 10.0 mi SSE 12.7 mph - N/A   Unknown
4:55 AM 51.8 °F 46.4 °F 82% 29.84 in 10.0 mi SE 12.7 mph - N/A   Unknown
5:15 AM 51.8 °F 48.2 °F 88% 29.84 in 10.0 mi SE 11.5 mph - N/A   Unknown
5:35 AM 51.8 °F 48.2 °F 88% 29.85 in 10.0 mi SSE 9.2 mph - N/A   Unknown
5:55 AM 51.8 °F 48.2 °F 88% 29.85 in 10.0 mi SE 11.5 mph - N/A   Unknown
6:15 AM 53.6 °F 48.2 °F 82% 29.85 in 10.0 mi SE 12.7 mph 18.4 mph N/A   Unknown
6:35 AM 53.6 °F 48.2 °F 82% 29.85 in 10.0 mi SE 13.8 mph - N/A   Unknown
6:55 AM 53.6 °F 48.2 °F 82% 29.86 in 10.0 mi SE 12.7 mph - N/A   Unknown
7:15 AM 53.6 °F 48.2 °F 82% 29.86 in 10.0 mi SSE 15.0 mph - N/A   Unknown
7:35 AM 53.6 °F 48.2 °F 82% 29.86 in 10.0 mi SE 12.7 mph - N/A   Unknown
7:55 AM 55.4 °F 48.2 °F 77% 29.86 in 10.0 mi SE 12.7 mph - N/A   Unknown
8:15 AM 55.4 °F 48.2 °F 77% 29.86 in 10.0 mi SE 12.7 mph 16.1 mph N/A   Unknown
8:35 AM 55.4 °F 48.2 °F 77% 29.87 in 10.0 mi SE 12.7 mph - N/A   Unknown
8:55 AM 55.4 °F 48.2 °F 77% 29.87 in 10.0 mi SSE 13.8 mph - N/A   Unknown
9:15 AM 55.4 °F 48.2 °F 77% 29.88 in 10.0 mi SSE 13.8 mph - N/A   Unknown
9:35 AM 55.4 °F 48.2 °F 77% 29.87 in 10.0 mi SSE 15.0 mph 20.7 mph N/A   Unknown
9:55 AM 57.2 °F 48.2 °F 72% 29.88 in 10.0 mi SE 17.3 mph - N/A   Unknown
10:15 AM 57.2 °F 48.2 °F 72% 29.88 in 10.0 mi SSE 13.8 mph 19.6 mph N/A   Unknown
10:35 AM 59.0 °F 48.2 °F 67% 29.88 in 10.0 mi SSE 13.8 mph 20.7 mph N/A   Unknown
10:55 AM 60.8 °F 48.2 °F 63% 29.88 in 10.0 mi SSE 15.0 mph 19.6 mph N/A   Unknown
11:15 AM 59.0 °F 48.2 °F 67% 29.88 in 10.0 mi SSE 15.0 mph 24.2 mph N/A   Unknown
11:35 AM 60.8 °F 48.2 °F 63% 29.89 in 10.0 mi SSE 16.1 mph 23.0 mph N/A   Unknown
11:55 AM 59.0 °F 48.2 °F 67% 29.89 in 10.0 mi SSE 12.7 mph 20.7 mph N/A   Unknown
12:15 PM 57.2 °F 48.2 °F 72% 29.89 in 10.0 mi SSE 11.5 mph - N/A   Unknown
12:35 PM 57.2 °F 48.2 °F 72% 29.89 in 10.0 mi SSE 11.5 mph - N/A   Unknown
12:55 PM 57.2 °F 48.2 °F 72% 29.89 in 10.0 mi SSE 10.4 mph - N/A   Unknown
1:15 PM 59.0 °F 48.2 °F 67% 29.89 in 10.0 mi SSE 12.7 mph - N/A   Unknown
1:35 PM 59.0 °F 48.2 °F 67% 29.89 in 10.0 mi SSE 10.4 mph 16.1 mph N/A   Unknown
1:55 PM 59.0 °F 48.2 °F 67% 29.89 in 10.0 mi SSE 16.1 mph 20.7 mph N/A   Unknown
2:15 PM 62.6 °F 48.2 °F 59% 29.89 in 10.0 mi SSE 18.4 mph 23.0 mph N/A   Unknown
2:35 PM 60.8 °F 46.4 °F 59% 29.89 in 10.0 mi SSE 13.8 mph 20.7 mph N/A   Unknown
2:55 PM 59.0 °F 44.6 °F 59% 29.89 in 10.0 mi SSE 9.2 mph - N/A   Unknown
3:15 PM 60.8 °F 46.4 °F 59% 29.89 in 10.0 mi SE 11.5 mph - N/A   Unknown
3:35 PM 60.8 °F 48.2 °F 63% 29.88 in 10.0 mi SSE 12.7 mph - N/A   Unknown
3:55 PM 60.8 °F 46.4 °F 59% 29.88 in 10.0 mi SSE 11.5 mph - N/A   Unknown
4:15 PM 60.8 °F 48.2 °F 63% 29.88 in 10.0 mi SE 12.7 mph - N/A   Unknown
4:35 PM 60.8 °F 48.2 °F 63% 29.88 in 10.0 mi SSE 9.2 mph - N/A   Unknown
4:55 PM 62.6 °F 46.4 °F 55% 29.87 in 10.0 mi South 13.8 mph - N/A   Unknown
5:15 PM 62.6 °F 46.4 °F 55% 29.87 in 10.0 mi South 13.8 mph - N/A   Unknown
5:35 PM 62.6 °F 46.4 °F 55% 29.87 in 10.0 mi SSE 12.7 mph - N/A   Unknown
5:55 PM 60.8 °F 46.4 °F 59% 29.86 in 10.0 mi SSE 13.8 mph - N/A   Unknown
6:15 PM 62.6 °F 46.4 °F 55% 29.85 in 10.0 mi South 16.1 mph 20.7 mph N/A   Unknown
6:35 PM 62.6 °F 48.2 °F 59% 29.85 in 10.0 mi SSE 15.0 mph - N/A   Unknown
6:55 PM 60.8 °F 46.4 °F 59% 29.84 in 10.0 mi SSE 15.0 mph - N/A   Unknown
7:15 PM 60.8 °F 46.4 °F 59% 29.84 in 10.0 mi SSE 9.2 mph - N/A   Unknown
7:35 PM 60.8 °F 48.2 °F 63% 29.83 in 10.0 mi SE 10.4 mph - N/A   Unknown
7:55 PM 60.8 °F 46.4 °F 59% 29.83 in 10.0 mi South 11.5 mph - N/A   Unknown
8:15 PM 59.0 °F 44.6 °F 59% 29.84 in 10.0 mi SSE 12.7 mph - N/A   Unknown
8:35 PM 57.2 °F 46.4 °F 67% 29.83 in 10.0 mi SSE 12.7 mph 16.1 mph N/A   Unknown
8:55 PM 57.2 °F 46.4 °F 67% 29.83 in 10.0 mi SE 8.1 mph - N/A   Unknown
9:15 PM 57.2 °F 48.2 °F 72% 29.82 in 10.0 mi SE 12.7 mph - N/A   Unknown
9:35 PM 55.4 °F 48.2 °F 77% 29.82 in 10.0 mi SE 10.4 mph - N/A   Unknown
9:55 PM 55.4 °F 48.2 °F 77% 29.82 in 10.0 mi SE 9.2 mph - N/A   Unknown
10:15 PM 55.4 °F 48.2 °F 77% 29.82 in 10.0 mi SE 9.2 mph - N/A   Unknown
10:35 PM 55.4 °F 48.2 °F 77% 29.81 in 10.0 mi SE 8.1 mph - N/A   Unknown
10:55 PM 55.4 °F 46.4 °F 72% 29.81 in 10.0 mi SE 11.5 mph - N/A   Unknown
11:15 PM 55.4 °F 46.4 °F 72% 29.80 in 10.0 mi ESE 5.8 mph - N/A   Unknown
11:35 PM 53.6 °F 46.4 °F 77% 29.79 in 10.0 mi SE 5.8 mph - N/A   Unknown
11:55 PM 53.6 °F 46.4 °F 77% 29.79 in 10.0 mi Calm Calm - N/A   Unknown